• In Czech Republic
  • List of Countries
  • For 7 days
  • Water Temperature
  • Satellite Maps
  • Weather Map
  • Weather Widgets
  • user-avatar
    Login

    Hourly Weather Prutz

    Today, 26 September, Wednesday

    Time Temperature Precipitation Wind Pressure Humidity
    00:00 +3°C° 0 mm 1 mps 644 mmHg 60%
    01:00 +3°C° 0 mm 1 mps 644 mmHg 56%
    02:00 +2°C° 0 mm 2 mps 644 mmHg 54%
    03:00 +3°C° 0 mm 2 mps 644 mmHg 52%
    04:00 +3°C° 0 mm 2 mps 644 mmHg 51%
    05:00 +3°C° 0 mm 2 mps 644 mmHg 49%
    06:00 +4°C° 0 mm 2 mps 644 mmHg 48%
    07:00 +4°C° 0 mm 2 mps 645 mmHg 47%
    08:00 +8°C° 0 mm 1 mps 646 mmHg 39%
    09:00 +12°C° 0 mm 1 mps 646 mmHg 32%
    10:00 +15°C° 0 mm 1 mps 647 mmHg 24%
    11:00 +16°C° 0 mm 1 mps 647 mmHg 24%
    12:00 +18°C° 0 mm 1 mps 648 mmHg 24%
    13:00 +19°C° 0 mm 1 mps 648 mmHg 24%
    14:00 +18°C° 0 mm 1 mps 647 mmHg 28%
    15:00 +17°C° 0 mm 2 mps 647 mmHg 33%
    16:00 +16°C° 0 mm 2 mps 647 mmHg 37%
    17:00 +13°C° 0 mm 1 mps 646 mmHg 49%
    18:00 +10°C° 0 mm 1 mps 645 mmHg 62%
    19:00 +7°C° 0 mm 1 mps 644 mmHg 74%
    20:00 +7°C° 0 mm 1 mps 644 mmHg 71%
    21:00 +7°C° 0 mm 1 mps 644 mmHg 68%
    22:00 +7°C° 0 mm 1 mps 644 mmHg 65%
    23:00 +7°C° 0 mm 1 mps 644 mmHg 60%

    Tomorrow, 27 September, Thursday

    Time Temperature Precipitation Wind Pressure Humidity
    00:00 +7°C° 0 mm 1 mps 644 mmHg 55%
    01:00 +7°C° 0 mm 1 mps 644 mmHg 50%
    02:00 +7°C° 0 mm 1 mps 644 mmHg 46%
    03:00 +7°C° 0 mm 1 mps 643 mmHg 42%
    04:00 +7°C° 0 mm 1 mps 643 mmHg 39%
    05:00 +7°C° 0 mm 1 mps 643 mmHg 39%
    06:00 +8°C° 0 mm 1 mps 643 mmHg 39%
    07:00 +8°C° 0 mm 1 mps 643 mmHg 39%
    08:00 +11°C° 0 mm 1 mps 644 mmHg 34%
    09:00 +15°C° 0 mm 1 mps 645 mmHg 30%
    10:00 +19°C° 0 mm 1 mps 646 mmHg 26%
    11:00 +20°C° 0 mm 1 mps 646 mmHg 26%
    12:00 +20°C° 0 mm 1 mps 646 mmHg 27%
    13:00 +21°C° 0 mm 1 mps 646 mmHg 27%
    14:00 +21°C° 0 mm 1 mps 645 mmHg 31%
    15:00 +20°C° 0 mm 1 mps 644 mmHg 35%
    16:00 +19°C° 0 mm 1 mps 644 mmHg 39%
    17:00 +15°C° 0 mm 1 mps 643 mmHg 51%
    18:00 +12°C° 0 mm 1 mps 642 mmHg 63%
    19:00 +8°C° 0 mm 0 mps 640 mmHg 75%
    20:00 +9°C° 0 mm 1 mps 640 mmHg 74%
    21:00 +9°C° 0 mm 1 mps 640 mmHg 74%
    22:00 +8°C° 0 mm 1 mps 640 mmHg 73%
    23:00 +8°C° 0 mm 1 mps 640 mmHg 72%

    Day after tomorrow, 28 September, Friday

    Time Temperature Precipitation Wind Pressure Humidity
    00:00 +8°C° 0 mm 1 mps 639 mmHg 71%
    01:00 +8°C° 0 mm 1 mps 639 mmHg 70%
    02:00 +8°C° 0 mm 1 mps 638 mmHg 69%
    03:00 +7°C° 0 mm 1 mps 638 mmHg 67%
    04:00 +7°C° 0 mm 1 mps 637 mmHg 65%
    05:00 +7°C° 0 mm 1 mps 637 mmHg 63%
    06:00 +8°C° 0 mm 1 mps 637 mmHg 61%
    07:00 +8°C° 0 mm 1 mps 637 mmHg 59%
    08:00 +11°C° 0 mm 1 mps 638 mmHg 52%
    09:00 +14°C° 0 mm 1 mps 638 mmHg 45%
    10:00 +16°C° 0 mm 1 mps 639 mmHg 39%
    11:00 +18°C° 0 mm 1 mps 639 mmHg 39%
    12:00 +19°C° 0 mm 1 mps 639 mmHg 39%
    13:00 +18°C° 0 mm 2 mps 639 mmHg 39%
    14:00 +18°C° 0 mm 2 mps 638 mmHg 44%
    15:00 +17°C° 0 mm 2 mps 637 mmHg 49%
    16:00 +17°C° 0 mm 2 mps 637 mmHg 53%
    17:00 +14°C° 0 mm 2 mps 636 mmHg 66%
    18:00 +12°C° 0 mm 1 mps 635 mmHg 78%
    19:00 +10°C° 0 mm 1 mps 635 mmHg 91%
    20:00 +9°C° 0 mm 1 mps 635 mmHg 92%
    21:00 +9°C° 0 mm 1 mps 635 mmHg 93%
    22:00 +9°C° 0 mm 1 mps 635 mmHg 95%
    23:00 +9°C° 0 mm 1 mps 635 mmHg 95%

    29 September, Saturday

    Time Temperature Precipitation Wind Pressure Humidity
    00:00 +9°C° 0 mm 1 mps 635 mmHg 95%
    01:00 +9°C° 0 mm 1 mps 635 mmHg 95%
    02:00 +9°C° 0.1 mm 1 mps 635 mmHg 95%
    03:00 +9°C° 0.1 mm 1 mps 635 mmHg 95%
    04:00 +8°C° 0.1 mm 1 mps 635 mmHg 95%
    05:00 +8°C° 0.5 mm 1 mps 635 mmHg 95%
    06:00 +7°C° 0.5 mm 2 mps 635 mmHg 95%
    07:00 +7°C° 0.5 mm 2 mps 635 mmHg 95%
    08:00 +7°C° 0.5 mm 2 mps 635 mmHg 93%
    09:00 +7°C° 0.5 mm 2 mps 635 mmHg 91%
    10:00 +7°C° 0.5 mm 2 mps 635 mmHg 90%
    11:00 +7°C° 0.2 mm 2 mps 635 mmHg 88%
    12:00 +7°C° 0.2 mm 2 mps 635 mmHg 86%
    13:00 +7°C° 0.2 mm 3 mps 635 mmHg 85%
    14:00 +7°C° 0.1 mm 3 mps 635 mmHg 84%
    15:00 +7°C° 0.1 mm 3 mps 635 mmHg 83%
    16:00 +7°C° 0.1 mm 2 mps 635 mmHg 83%
    17:00 +6°C° 0.1 mm 2 mps 635 mmHg 85%
    18:00 +5°C° 0.1 mm 2 mps 635 mmHg 87%
    19:00 +4°C° 0.1 mm 2 mps 635 mmHg 90%
    20:00 +5°C° 0 mm 1 mps 635 mmHg 91%
    21:00 +4°C° 0 mm 1 mps 635 mmHg 92%
    22:00 +3°C° 0 mm 1 mps 635 mmHg 94%
    23:00 +3°C° 0 mm 1 mps 635 mmHg 93%

    30 September, Sunday

    Time Temperature Precipitation Wind Pressure Humidity
    00:00 +2°C° 0 mm 1 mps 634 mmHg 92%
    01:00 +2°C° 0 mm 1 mps 634 mmHg 91%
    02:00 +2°C° 0 mm 1 mps 634 mmHg 89%
    03:00 +1°C° 0 mm 1 mps 633 mmHg 86%
    04:00 +1°C° 0 mm 1 mps 633 mmHg 83%
    05:00 +2°C° 0 mm 1 mps 633 mmHg 80%
    06:00 +2°C° 0 mm 1 mps 633 mmHg 76%
    07:00 +2°C° 0 mm 1 mps 633 mmHg 72%
    08:00 +5°C° 0 mm 1 mps 634 mmHg 64%
    09:00 +8°C° 0 mm 1 mps 635 mmHg 55%
    10:00 +10°C° 0 mm 1 mps 635 mmHg 46%
    11:00 +11°C° 0 mm 1 mps 635 mmHg 44%
    12:00 +12°C° 0 mm 1 mps 635 mmHg 42%
    13:00 +13°C° 0 mm 1 mps 635 mmHg 39%
    14:00 +13°C° 0 mm 1 mps 635 mmHg 43%
    15:00 +13°C° 0 mm 1 mps 635 mmHg 46%
    16:00 +12°C° 0 mm 1 mps 634 mmHg 50%
    17:00 +10°C° 0 mm 1 mps 634 mmHg 62%
    18:00 +7°C° 0 mm 1 mps 633 mmHg 74%
    19:00 +5°C° 0 mm 1 mps 632 mmHg 87%
    20:00 +5°C° 0 mm 1 mps 633 mmHg 87%
    21:00 +5°C° 0 mm 1 mps 633 mmHg 87%
    22:00 +5°C° 0 mm 1 mps 633 mmHg 86%
    23:00 +4°C° 0 mm 1 mps 633 mmHg 87%

    1 October, Monday

    Time Temperature Precipitation Wind Pressure Humidity
    00:00 +4°C° 0 mm 1 mps 633 mmHg 87%
    01:00 +4°C° 0 mm 1 mps 632 mmHg 88%
    02:00 +4°C° 0 mm 1 mps 632 mmHg 88%
    03:00 +4°C° 0 mm 1 mps 632 mmHg 88%
    04:00 +3°C° 0 mm 1 mps 632 mmHg 88%
    05:00 +4°C° 0 mm 1 mps 632 mmHg 87%
    06:00 +4°C° 0 mm 1 mps 632 mmHg 86%
    07:00 +4°C° 0 mm 1 mps 633 mmHg 84%
    08:00 +7°C° 0 mm 1 mps 634 mmHg 74%
    09:00 +9°C° 0 mm 1 mps 634 mmHg 64%
    10:00 +12°C° 0 mm 1 mps 635 mmHg 54%
    11:00 +12°C° 0 mm 1 mps 635 mmHg 52%
    12:00 +13°C° 0 mm 2 mps 635 mmHg 50%
    13:00 +14°C° 0 mm 2 mps 635 mmHg 48%
    14:00 +13°C° 0 mm 2 mps 635 mmHg 52%
    15:00 +12°C° 0 mm 2 mps 635 mmHg 57%
    16:00 +12°C° 0 mm 2 mps 635 mmHg 61%
    17:00 +9°C° 0 mm 2 mps 635 mmHg 71%
    18:00 +7°C° 0 mm 2 mps 635 mmHg 81%
    19:00 +6°C° 0 mm 2 mps 635 mmHg 92%
    20:00 +5°C° 0 mm 2 mps 635 mmHg 92%
    21:00 +6°C° 0 mm 1 mps 635 mmHg 92%
    22:00 +6°C° 0 mm 1 mps 636 mmHg 93%
    23:00 +5°C° 0 mm 1 mps 636 mmHg 93%
    Show more